Powrót do katalogu

STARLINK-34267

AktywnyŁącznośćVLEO
NORAD 65080·PAYLOAD·🇺🇸 United States

Wystrzelony Aug 4, 2025 z Cape Canaveral Space Force Station

Loading…

Następne Przeloty (najbliższe 24 godziny)

TLE

ŚwieżeSource: CelesTrak SupGP

Epoka: Sep 15, 2026, 02:56 UTC

1 65080C 25167C   26258.12270833 -.00043548  00000+0 -12867-2 0  2588
2 65080  53.1575 220.5347 0001414  87.8602 190.4919 15.34410636    18

Śledź STARLINK-34267 w czasie rzeczywistym z AllMySat

Download on the App Store